CZ-6A DEB, 54547

Orbit data source: Space-Track

CZ-6A DEB, 54547 is space debris in SSO originally from a launch on Fri, 11 Nov 2022 UTC launched from the Taiyaun Space Center, China (TSC). Debris objects in space refer to the collection of defunct objects orbiting the Earth. Examples of debris include non-operational satellites, rocket bodies, and fragments generated from explosions, collisions, or faulty payload assembly.

Loading next visibility...
Identifier
54547, 2022-151KX
Orbit
SSO
Country
Flag of CNCN / PRC
Related business
Manufacturer
SAST
Mission
Spacecraft
Bus & Motor
Unknown
Mass
Unknown
Launch date (UTC)
2022-11-11 (4 years ago)
Launch vehicle
Unknown
Launch site
Taiyaun Space Center, China (TSC)
Object type
Payload
Rocket body
Debris
Shape & HBR
Unknown shape, 1.1 m
Radar Cross Section
Medium (>0.1 m² and <1 m²)

Expand to show TLE details & history
Last TLE update: 19 hours ago

TLE from 19 hours ago
0 CZ-6A DEB
1 54547U 22151KX  26235.45201945  .00003771  00000-0  14529-2 0  9995
2 54547  98.8074 247.8214 0089942 146.9377 213.7471 14.28672283195227
Epoch: 2026-08-23T10:50Z
TLE epoch observation values (Epoch: 2026-08-23T10:50:54.480Z)
Latitude
-0.00005°
Longitude
113.34653°
Altitude
852.938 km
Speed
7.398 km/s
True Right ascension
16h 31m 17s
True Declination
0° 00' 00"
Sunlit
Object was in daylight at epoch
Visualization orbit readout
Latitude
Unknown
Longitude
Unknown
Altitude
Unknown
Speed
Unknown
Apparent Right ascension
Unknown
Apparent Declination
Unknown
Sunlit
N/A
Visualization observer readout
Local Sidereal Time
21:12:27
Azimuth
Unknown
Elevation
Unknown
Doppler factor
Unknown
Orbital elements
Apogee altitude
857.825 km
Perigee altitude
728.822 km
Semi-major axis
7,171.461 km
Eccentricity
0.00899
Inclination
98.8074°
RAAN
247.8214°
Arg. of periapsis
146.9377°
True anomaly
213.17985°
Mean anomaly
213.7471°
Eccentric anomaly
213.46295°
Mean motion
3.57381 °/min
Orbital period
100.73 mins
BSTAR
0.0014529
Loading maneuver chart data...
Computing Atmospheric mass density...
Loading historical data...
Loading historical data...
Loading historical data...
Loading historical data...
Loading historical data...
Loading historical data...
Loading historical data...

Documentation

Showing up to 5 results
|